Погода в Лефкасе

Греция     38°49′54″N   20°42′28″E
темп.,
°C
ветер,
м/с
пор.,
м/с
влажн.,
%
обл.,
%
осадки,
мм/ч
давл.,
гПа
погр.,
м
25 мая, ср
ср2500:00+20св11740 0.0 101411
03:00+20с11750 0.0 101412
06:00+20ссз11720 0.0 101411
09:00+22ссз11620 0.0 1016112
12:00+25ююз11466 0.0 1017323
15:00+26з12485 0.0 1016342
18:00+26ссз23480 0.0 1017184
21:00+22ссз22600 0.0 101713
26 мая, чт
чт2600:00+21с22595 0.0 101916
03:00+20ссз226035 0.0 101918
06:00+20ссз22575 0.0 101822
09:00+23ссз224716 0.0 101975
12:00+25ссз23435 0.0 1020232
15:00+27сз344012 0.0 1020223
18:00+26ссз454338 0.0 1019158
21:00+21ссз34622 0.0 101944
27 мая, пт
пт2700:00+20ссз34633 0.0 101938
03:00+20ссз336141 0.0 101828
06:00+20ссз33595 0.0 101825
09:00+23ссв11510 0.0 101770
12:00+27зсз11390 0.0 1017298
15:00+26сз34451 0.0 1016248
18:00+26сз23450 0.0 1015144
21:00+22ссз33591 0.0 101526
28 мая, сб
сб2800:00+21с22610 0.0 101515
03:00+21с11585 0.0 101411
06:00+20ссв22555 0.0 101212
09:00+23зюз01513 0.0 101387
12:00+26св114187 0.0 1012313
15:00+26зсз1147100 0.0 1012269
18:00+25ююз11452 0.0 1011283
21:00+23всв4457100 0.0 100943
29 мая, вс
вс2900:00+21ю226433 0.0 100932
03:00+21вюв115954 0.0 100911
06:00+21юв2256100 0.0 100917
09:00+22ю225182 0.0 1008105
12:00+25ю3545100 0.0 1008338
15:00+26ююв916455 0.0 1007547
18:00+23юв6963100 0.0 1008411
21:00+20ююз33853 0.0 1009199